Miscellaneous Local Product
Issued by NWS North Platte, NE

Home | Current Version | Previous Version | Text Only | Print | Product List | Glossary On
Versions: 1 2 3 4 5 6 7 8 9 10 11 12 13 14 15 16 17 18 19 20 21 22 23 24 25 26 27 28 29 30 31 32 33 34 35 36 37 38 39 40 41 42 43 44 45 46 47 48 49 50
000
AXUS43 KLBF 280910
MISLBF


WESTERN AND NORTH CENTRAL NEBRASKA HOURLY WEATHER ROUNDUP
NATIONAL WEATHER SERVICE NORTH PLATTE NE
400 AM CDT THU MAY 28 2015

***STATIONS NOT REPORTING VARIABLES SUCH AS SKY/WEATHER OR
PRESSURE ARE PROVIDED BY THE NEBRASKA DEPARTMENT OF
ROADS...RAWS...AND APRS NETWORKS...AND ARE NOT UNDER
NATIONAL WEATHER SERVICE QUALITY CONTROL***

...OBSERVATIONS IN AND NEAR THE EASTERN PANHANDLE OF NEBRASKA...

CITY           SKY/WX    TMP DP  RH WIND       PRES   REMARKS
PINE RIDGE     MOCLDY    58  51  78 S12       29.94F
CHADRON        MOCLDY    59  52  77 CALM      29.94S
ALLIANCE       CLOUDY    53  51  93 W8        30.01F
SIDNEY         MOCLDY    52  51  97 SE6       30.03F
WHITECLAY        N/A     59  51  73 S14         N/A
BIG SPRINGS      N/A     58  55  91 CALM        N/A
$$

...OBSERVATIONS IN NORTH CENTRAL NEBRASKA...

CITY           SKY/WX    TMP DP  RH WIND       PRES   REMARKS
VALENTINE      PTCLDY    56  54  93 SE9       29.97S
THEDFORD       PTCLDY    55  54  97 S6        29.99F
AINSWORTH      CLEAR     57  56  97 S7        29.99F
O`NEILL        PTCLDY    61  58  87 S6        30.00F
ORD            MOCLDY    59  56  89 SE5       29.98F
BROKEN BOW     PTCLDY    54  52  93 CALM      29.99F FOG
BROWNLEE         N/A     58  57  94 SE14        N/A
VALENTINE NWR    N/A     55  55  99 S6          N/A
SPRINGVIEW       N/A     58  55  89 CALM        N/A
HALSEY           N/A     55  54  98 S5          N/A
BREWSTER         N/A     59  59 100 S5          N/A
ROSE             N/A     59  59  99 E7          N/A
NEWPORT          N/A     62  59  91 CALM        N/A
SARGENT          N/A     57  55  95 CALM        N/A
COMSTOCK         N/A     60  60  99 CALM        N/A
EWING            N/A     63  57  80 CALM        N/A
$$

...OBSERVATIONS IN SOUTHWEST NEBRASKA AND FAR NORTHEAST COLORADO...

CITY           SKY/WX    TMP DP  RH WIND       PRES   REMARKS
WRAY           FAIR      56  56 100 S8        30.01S
HOLYOKE        FAIR      59  55  88 NW7       30.03R
IMPERIAL       CLEAR     53  50  89 SE3       30.00S
OGALLALA       PTCLDY    55  53  94 NW7       30.00F
NORTH PLATTE   PTCLDY    55  53  93 E3        30.01S
MCCOOK         MOCLDY    57  52  83 SE3       30.00R
LEXINGTON      PTCLDY    57  56  96 SE5       30.01R FOG
PAXTON           N/A     57  55  92 CALM        N/A
GOTHENBURG       N/A     57  54  89 CALM        N/A
CALLAWAY         N/A     55  54  96 SE5         N/A
$$

...NORTH PLATTE AREA...

CITY           SKY/WX    TMP DP  RH WIND       PRES   REMARKS
AIRPORT        PTCLDY    55  53  93 E3        30.01S
DOWNTOWN         N/A     56  53  91 CALM        N/A
$$

...SOME WEATHER OBSERVATIONS FROM AROUND THE REGION...

CITY           SKY/WX    TMP DP  RH WIND       PRES   REMARKS
DENVER         CLOUDY    55  53  93 NW7       30.05S
LARAMIE        PTCLDY    41  37  86 SW8       30.14S
CHEYENNE       PTCLDY    51  49  92 W7        30.09F
SCOTTSBLUFF    MOCLDY    56  52  86 E7        30.01F
RAPID CITY     CLOUDY    55  52  89 S3        29.92F
PIERRE         CLEAR     58  55  90 S9        29.91F
WINNER         CLOUDY    64  55  72 S9        29.95F
SIOUX FALLS    MOCLDY    65  50  58 S8        30.02S
OMAHA          CLOUDY    64  54  69 SE3       30.04F
GRAND ISLAND   MOCLDY    63  57  81 SE8       30.01F
KANSAS CITY    MOCLDY    66  56  70 SE9       30.07F
WICHITA        CLOUDY    65  61  87 SE8       30.01F
HAYS           CLOUDY    57  48  72 S5        30.00R
LIBERAL        CLOUDY    61  54  77 E16       30.08S
GOODLAND       PTCLDY    55  54  96 S16       30.02R
$$



USA.gov is the U.S. government's official web portal to all federal, state and local government web resources and services.